• Join FlightAware (Why Join?)
  • Login
  • US Flag 
02:54PM EDT


 

Airport Tracker/Info


-or-


 

Live Flight TrackerFlight Track Log ✈ EJA396 ✈ 29-Apr-2013 ✈ KRIC - KPDK

Flight Track Log - Related Links

Times and Time Zones

All times are in EDT time to prevent confusion due to time zone crossing. See the EJA396 flight status page for this flight to view local times or setup timezone preferences in your user account.

Time Position Orientation Groundspeed Altitude Reporting Facility
EDT Latitude Longitude Course Direction KTS MPH feet Rate Location/Type
04:30PM 37.4667 -77.3000 256° West 216 249 2,300  Level Potomac TRACON
04:31PM 37.4261 -77.3519 225° Southwest 240 276 5,100 3,660 Climbing Washington Center
04:32PM 37.4167 -77.4300 261° West 218 251 9,900 4,140 Climbing Washington Center
04:33PM 37.4067 -77.5267 263° West 238 274 13,400 3,240 Climbing Washington Center
04:34PM 37.3964 -77.6439 264° West 296 341 16,400 2,880 Climbing Washington Center
04:35PM 37.3817 -77.7692 262° West 339 390 19,300 1,800 Climbing Washington Center
04:36PM 37.3615 -77.9092 256° West  Level FlightAware Approximate
04:36PM 37.3689 -77.8992 263° West 371 427 20,000  Level Washington Center
04:37PM 37.3453 -78.0450 259° West 391 450 20,000  Level Washington Center
04:38PM 37.3222 -78.1461 254° West 391 450 20,000  Level Washington Center
04:39PM 37.2894 -78.3042 255° West 391 450 20,000 300 Level Washington Center
04:40PM 37.2800 -78.4422 265° West 396 456 20,700 1,800 Climbing Washington Center
04:41PM 37.2769 -78.5700 268° West 390 449 23,600 3,000 Climbing Washington Center
04:42PM 37.2736 -78.7056 268° West 384 442 26,600 1,680 Climbing Washington Center
04:43PM 37.2683 -78.8253 267° West 384 442 27,000 180 Climbing Washington Center
04:44PM 37.2642 -78.9714 268° West 399 459 27,000  Level Washington Center
04:45PM 37.2578 -79.1197 267° West 414 476 27,000 600 Level Washington Center
04:46PM 37.2472 -79.2628 265° West 420 483 28,300 1,560 Climbing Washington Center
04:47PM 37.2181 -79.3997 255° West 420 483 30,200 1,860 Climbing Washington Center
04:48PM 37.1861 -79.5492 255° West 409 471 32,000 900 Climbing Washington Center
04:49PM 37.1542 -79.6911 254° West 415 478 32,000 60 Level Washington Center
04:50PM 37.1264 -79.8250 255° West 415 478 32,200 660 Climbing Washington Center
04:51PM 37.0944 -79.9611 254° West 410 472 33,400 1,140 Climbing Washington Center
04:54PM 37.0278 -80.2508 254° West 411 473 36,000 780 Climbing Atlanta Center
04:55PM 36.9692 -80.3808 241° Southwest 416 479 36,000  Level Atlanta Center
04:56PM 36.8750 -80.5072 227° Southwest 448 516 36,000  Level Atlanta Center
04:57PM 36.7992 -80.6247 231° Southwest 448 516 36,000  Level Atlanta Center
04:58PM 36.7308 -80.7261 230° Southwest 438 504 36,000  Level Atlanta Center
04:59PM 36.6547 -80.8406 230° Southwest 438 504 36,000  Level Atlanta Center
05:00PM 36.5786 -80.9597 232° Southwest 438 504 36,000  Level Atlanta Center
05:01PM 36.5003 -81.0792 231° Southwest 438 504 36,000  Level Atlanta Center
05:02PM 36.4217 -81.1956 230° Southwest 443 510 36,000  Level Atlanta Center
05:03PM 36.3450 -81.3117 231° Southwest 443 510 36,000  Level Atlanta Center
05:04PM 36.2603 -81.4406 231° Southwest 443 510 36,000  Level Atlanta Center
05:05PM 36.1833 -81.5536 230° Southwest 434 499 36,000  Level Atlanta Center
05:06PM 36.1042 -81.6667 229° Southwest 440 506 36,000  Level Atlanta Center
05:07PM 36.0272 -81.7844 231° Southwest 432 497 36,000  Level Atlanta Center
05:08PM 35.9519 -81.8969 230° Southwest 438 504 36,000  Level Atlanta Center
05:09PM 35.8725 -82.0142 230° Southwest 438 504 36,000 -420 Level Atlanta Center
05:10PM 35.7950 -82.1236 229° Southwest 438 504 35,200 -720 Descending Atlanta Center
05:11PM 35.7175 -82.2381 230° Southwest 438 504 34,600 -840 Descending Atlanta Center
05:12PM 35.6400 -82.3497 230° Southwest 438 504 33,600 -1,020 Descending Atlanta Center
05:13PM 35.5622 -82.4636 230° Southwest 443 510 32,600 -1,140 Descending Atlanta Center
05:14PM 35.4925 -82.5644 230° Southwest 435 501 31,400 1,680 Descending Atlanta Center
05:15PM 35.4083 -82.6806 228° Southwest 443 510 36,000 -2,100 Climbing Atlanta Center
05:17PM 35.2417 -82.9172 229° Southwest 450 518 25,100 -4,020 Descending Atlanta Center
05:18PM 35.1611 -83.0275 228° Southwest 445 512 24,000 -600 Descending Atlanta Center
05:19PM 35.0828 -83.1453 231° Southwest 440 506 24,000  Level Atlanta Center
05:20PM 35.0042 -83.2553 229° Southwest 440 506 24,000 -240 Level Atlanta Center
05:21PM 34.9236 -83.3675 229° Southwest 439 505 23,600 -900 Descending Atlanta Center
05:22PM 34.8447 -83.4744 228° Southwest 439 505 22,300 -1,500 Descending Atlanta Center
05:23PM 34.7700 -83.5811 230° Southwest 434 499 20,600 -1,200 Descending Atlanta Center
05:24PM 34.6975 -83.6850 230° Southwest 421 484 20,000 -1,440 Descending Atlanta Center
05:25PM 34.6289 -83.7789 228° Southwest 396 456 17,800 -2,340 Descending Atlanta Center
05:26PM 34.5642 -83.8647 228° Southwest 358 412 15,400 -2,460 Descending Atlanta Center
05:27PM 34.5017 -83.9556 230° Southwest 358 412 12,900 -2,700 Descending Atlanta Center
05:28PM 34.4267 -84.0161 214° Southwest 340 391 10,100 -2,640 Descending Atlanta Center
05:29PM 34.3536 -84.0539 203° Southwest 310 357 7,700 -1,560 Descending Atlanta Center
05:30PM 34.2825 -84.0917 204° Southwest 283 326 7,000 -1,260 Descending Atlanta Center
05:31PM 34.2136 -84.1317 206° Southwest 277 319 5,200 -1,500 Descending Atlanta Center
05:32PM 34.1575 -84.1619 204° Southwest 265 305 4,000 -840 Descending Atlanta Center
05:32PM 34.1167 -84.1833 203° Southwest 215 247 4,000 -240 Level Atlanta TRACON
05:33PM 34.0833 -84.2167 220° Southwest 213 245 3,700 -240 Descending Atlanta TRACON
05:34PM 34.0167 -84.2333 192° South 210 242 3,600 -480 Descending Atlanta TRACON
05:35PM 33.9667 -84.2667 209° Southwest 209 241 2,800 -900 Descending Atlanta TRACON
05:36PM 33.9333 -84.2833 203° Southwest 132 152 2,000 -720 Descending Atlanta TRACON
05:37PM 33.9000 -84.2833 180° South 140 161 1,400 -600 Descending Atlanta TRACON
05:39PM 33.8667 -84.3000 209° Southwest  Level FlightAware Approximate
05:46PM 33.8756 -84.3020 209° Southwest  Level Estimated